When you browse on this site, cookies collect data to enhance your experience and personalize the content and advertising you see.
Visit our Privacy Policy to learn more. By continuing to use the site, you agree to this use of cookies and data.
  • In Lithuania
  • List of Countries
  • For 7 days
  • Water Temperature
  • Weather Map
  • Weather Widgets
  • user-avatar
    Login

    Hourly Weather Lusaka

    Today, 30 March, Monday

    Time Temperature Precipitation Wind Pressure Humidity
    00:00 +19°C° 0 mm 1 mps 656 mmHg 90%
    01:00 +19°C° 0 mm 1 mps 656 mmHg 90%
    02:00 +19°C° 0 mm 1 mps 656 mmHg 90%
    03:00 +18°C° 0 mm 1 mps 656 mmHg 91%
    04:00 +17°C° 0 mm 2 mps 655 mmHg 92%
    05:00 +17°C° 0 mm 2 mps 655 mmHg 92%
    06:00 +18°C° 0 mm 2 mps 656 mmHg 87%
    07:00 +19°C° 0 mm 3 mps 657 mmHg 82%
    08:00 +20°C° 0 mm 3 mps 658 mmHg 77%
    09:00 +22°C° 0 mm 3 mps 659 mmHg 71%
    10:00 +25°C° 0 mm 3 mps 659 mmHg 65%
    11:00 +26°C° 0 mm 3 mps 659 mmHg 59%
    12:00 +27°C° 0.1 mm 3 mps 659 mmHg 58%
    13:00 +28°C° 0.1 mm 3 mps 658 mmHg 57%
    14:00 +28°C° 0.1 mm 3 mps 657 mmHg 56%
    15:00 +27°C° 0.3 mm 2 mps 657 mmHg 62%
    16:00 +26°C° 0.3 mm 2 mps 656 mmHg 68%
    17:00 +25°C° 0.3 mm 2 mps 655 mmHg 74%
    18:00 +24°C° 0.1 mm 2 mps 656 mmHg 80%
    19:00 +21°C° 0.1 mm 2 mps 656 mmHg 86%
    20:00 +19°C° 0.1 mm 2 mps 656 mmHg 92%
    21:00 +19°C° 0 mm 2 mps 656 mmHg 91%
    22:00 +19°C° 0 mm 2 mps 656 mmHg 90%
    23:00 +18°C° 0 mm 2 mps 656 mmHg 89%

    Tomorrow, 31 March, Tuesday

    Time Temperature Precipitation Wind Pressure Humidity
    00:00 +18°C° 0 mm 2 mps 656 mmHg 89%
    01:00 +18°C° 0 mm 2 mps 656 mmHg 88%
    02:00 +19°C° 0 mm 1 mps 656 mmHg 88%
    03:00 +17°C° 0 mm 2 mps 656 mmHg 88%
    04:00 +17°C° 0 mm 2 mps 656 mmHg 88%
    05:00 +17°C° 0 mm 2 mps 656 mmHg 89%
    06:00 +18°C° 0 mm 2 mps 657 mmHg 85%
    07:00 +19°C° 0 mm 3 mps 657 mmHg 81%
    08:00 +20°C° 0 mm 3 mps 658 mmHg 78%
    09:00 +22°C° 0 mm 3 mps 658 mmHg 72%
    10:00 +25°C° 0 mm 3 mps 659 mmHg 66%
    11:00 +26°C° 0 mm 3 mps 659 mmHg 60%
    12:00 +27°C° 0 mm 2 mps 659 mmHg 56%
    13:00 +28°C° 0 mm 2 mps 658 mmHg 53%
    14:00 +29°C° 0 mm 2 mps 658 mmHg 49%
    15:00 +28°C° 0 mm 2 mps 657 mmHg 55%
    16:00 +27°C° 0 mm 2 mps 656 mmHg 60%
    17:00 +26°C° 0 mm 2 mps 656 mmHg 65%
    18:00 +25°C° 0 mm 2 mps 656 mmHg 72%
    19:00 +23°C° 0 mm 2 mps 656 mmHg 79%
    20:00 +20°C° 0 mm 2 mps 656 mmHg 86%
    21:00 +20°C° 0 mm 2 mps 656 mmHg 85%
    22:00 +19°C° 0 mm 2 mps 656 mmHg 83%
    23:00 +19°C° 0 mm 2 mps 656 mmHg 82%

    Day after tomorrow, 1 April, Wednesday

    Time Temperature Precipitation Wind Pressure Humidity
    00:00 +19°C° 0 mm 2 mps 656 mmHg 82%
    01:00 +19°C° 0 mm 1 mps 656 mmHg 82%
    02:00 +19°C° 0 mm 1 mps 656 mmHg 82%
    03:00 +19°C° 0 mm 1 mps 656 mmHg 82%
    04:00 +19°C° 0 mm 1 mps 656 mmHg 83%
    05:00 +18°C° 0 mm 1 mps 656 mmHg 83%
    06:00 +18°C° 0 mm 2 mps 656 mmHg 80%
    07:00 +20°C° 0 mm 2 mps 657 mmHg 77%
    08:00 +21°C° 0 mm 2 mps 658 mmHg 73%
    09:00 +24°C° 0 mm 2 mps 659 mmHg 67%
    10:00 +26°C° 0 mm 2 mps 659 mmHg 60%
    11:00 +28°C° 0 mm 2 mps 660 mmHg 54%
    12:00 +28°C° 0 mm 2 mps 659 mmHg 51%
    13:00 +29°C° 0 mm 3 mps 658 mmHg 49%
    14:00 +30°C° 0 mm 3 mps 658 mmHg 47%
    15:00 +29°C° 0 mm 3 mps 657 mmHg 53%
    16:00 +28°C° 0 mm 3 mps 656 mmHg 58%
    17:00 +27°C° 0 mm 3 mps 656 mmHg 64%
    18:00 +25°C° 0 mm 2 mps 656 mmHg 69%
    19:00 +23°C° 0 mm 2 mps 656 mmHg 75%
    20:00 +20°C° 0 mm 2 mps 656 mmHg 80%
    21:00 +20°C° 0 mm 2 mps 656 mmHg 78%
    22:00 +19°C° 0 mm 2 mps 656 mmHg 77%
    23:00 +19°C° 0 mm 2 mps 656 mmHg 75%

    2 April, Thursday

    Time Temperature Precipitation Wind Pressure Humidity
    00:00 +19°C° 0 mm 2 mps 656 mmHg 75%
    01:00 +18°C° 0 mm 2 mps 656 mmHg 74%
    02:00 +18°C° 0 mm 2 mps 656 mmHg 74%
    03:00 +18°C° 0 mm 2 mps 656 mmHg 75%
    04:00 +18°C° 0 mm 3 mps 656 mmHg 77%
    05:00 +18°C° 0 mm 3 mps 656 mmHg 78%
    06:00 +18°C° 0 mm 4 mps 657 mmHg 76%
    07:00 +19°C° 0 mm 4 mps 658 mmHg 75%
    08:00 +20°C° 0 mm 5 mps 658 mmHg 73%
    09:00 +21°C° 0 mm 5 mps 659 mmHg 67%
    10:00 +23°C° 0 mm 5 mps 659 mmHg 61%
    11:00 +26°C° 0 mm 5 mps 659 mmHg 55%
    12:00 +26°C° 0 mm 4 mps 659 mmHg 55%
    13:00 +27°C° 0 mm 4 mps 658 mmHg 54%
    14:00 +28°C° 0 mm 4 mps 658 mmHg 53%
    15:00 +27°C° 0 mm 4 mps 657 mmHg 57%
    16:00 +26°C° 0 mm 3 mps 657 mmHg 60%
    17:00 +25°C° 0 mm 3 mps 656 mmHg 64%
    18:00 +22°C° 0 mm 3 mps 656 mmHg 66%
    19:00 +20°C° 0 mm 3 mps 656 mmHg 67%
    20:00 +18°C° 0 mm 2 mps 656 mmHg 69%
    21:00 +18°C° 0 mm 2 mps 656 mmHg 67%
    22:00 +17°C° 0 mm 2 mps 657 mmHg 66%
    23:00 +17°C° 0 mm 2 mps 657 mmHg 65%

    3 April, Friday

    Time Temperature Precipitation Wind Pressure Humidity
    00:00 +17°C° 0 mm 2 mps 657 mmHg 67%
    01:00 +16°C° 0 mm 2 mps 657 mmHg 69%
    02:00 +16°C° 0 mm 3 mps 657 mmHg 71%
    03:00 +16°C° 0 mm 3 mps 657 mmHg 76%
    04:00 +16°C° 0 mm 3 mps 657 mmHg 80%
    05:00 +16°C° 0 mm 3 mps 657 mmHg 85%
    06:00 +17°C° 0 mm 4 mps 658 mmHg 82%
    07:00 +17°C° 0 mm 5 mps 658 mmHg 80%
    08:00 +19°C° 0 mm 5 mps 659 mmHg 78%
    09:00 +20°C° 0 mm 5 mps 660 mmHg 70%
    10:00 +22°C° 0 mm 5 mps 660 mmHg 62%
    11:00 +25°C° 0 mm 5 mps 661 mmHg 55%
    12:00 +25°C° 0 mm 4 mps 660 mmHg 53%
    13:00 +26°C° 0 mm 4 mps 659 mmHg 52%
    14:00 +26°C° 0 mm 3 mps 659 mmHg 50%
    15:00 +26°C° 0 mm 3 mps 658 mmHg 54%
    16:00 +25°C° 0 mm 3 mps 658 mmHg 58%
    17:00 +24°C° 0 mm 3 mps 657 mmHg 62%
    18:00 +21°C° 0 mm 2 mps 657 mmHg 68%
    19:00 +20°C° 0 mm 2 mps 657 mmHg 74%
    20:00 +18°C° 0 mm 2 mps 657 mmHg 80%
    21:00 +17°C° 0 mm 2 mps 657 mmHg 81%
    22:00 +17°C° 0 mm 2 mps 657 mmHg 83%
    23:00 +17°C° 0 mm 2 mps 657 mmHg 85%

    4 April, Saturday

    Time Temperature Precipitation Wind Pressure Humidity
    00:00 +16°C° 0 mm 2 mps 657 mmHg 84%
    01:00 +16°C° 0 mm 2 mps 657 mmHg 84%
    02:00 +16°C° 0 mm 2 mps 657 mmHg 84%
    03:00 +16°C° 0 mm 3 mps 657 mmHg 87%
    04:00 +16°C° 0 mm 3 mps 657 mmHg 91%
    05:00 +16°C° 0 mm 3 mps 656 mmHg 94%
    06:00 +17°C° 0 mm 3 mps 657 mmHg 90%
    07:00 +18°C° 0 mm 4 mps 658 mmHg 86%
    08:00 +19°C° 0 mm 4 mps 659 mmHg 82%
    09:00 +20°C° 0 mm 4 mps 659 mmHg 77%
    10:00 +21°C° 0 mm 4 mps 659 mmHg 73%
    11:00 +22°C° 0 mm 4 mps 660 mmHg 68%
    12:00 +24°C° 0 mm 3 mps 659 mmHg 65%
    13:00 +24°C° 0 mm 3 mps 658 mmHg 62%
    14:00 +25°C° 0 mm 3 mps 658 mmHg 60%
    15:00 +25°C° 0 mm 3 mps 658 mmHg 61%
    16:00 +24°C° 0 mm 2 mps 657 mmHg 63%
    17:00 +24°C° 0 mm 2 mps 657 mmHg 64%
    18:00 +21°C° 0 mm 2 mps 657 mmHg 73%
    19:00 +19°C° 0 mm 2 mps 657 mmHg 81%
    20:00 +18°C° 0 mm 2 mps 657 mmHg 89%
    21:00 +17°C° 0 mm 2 mps 657 mmHg 90%
    22:00 +17°C° 0 mm 2 mps 657 mmHg 91%
    23:00 +18°C° 0 mm 1 mps 657 mmHg 92%
    Show more